Skip Page Navigation
NASA JPL Caltech
NASA Logo - Jet Propulsion Laboratory + View the NASA Portal
+ Near-Earth Object (NEO) Program
Search JPL
JPL Home Earth Solar System Stars & Galaxies Technology
JPL Solar System Dynamics
BODIES ORBITS EPHEMERIDES TOOLS PHYSICAL DATA DISCOVERY FAQ SITE MAP
JPL Small-Body Database Browser
Search: [ help ]  
241442 Shandongkexie (2008 YN9)
Classification: Main-belt Asteroid          SPK-ID: 2241442
Ephemeris | Orbit Diagram | Orbital Elements | Physical Parameters | Discovery Circumstances | Close-Approach Data ]

[ show orbit diagram ]
Orbital Elements at Epoch 2456800.5 (2014-May-23.0) TDB
Reference: JPL 2 (heliocentric ecliptic J2000)
 Element Value Uncertainty (1-sigma)   Units 
e .01786651141341373 1.9929e-07  
a 3.102500234167927 1.3559e-07 AU
q 3.047069378324047 5.8525e-07 AU
i 11.88637940296951 1.8754e-05 deg
node 109.8196774184614 6.1281e-05 deg
peri 157.8409631039521 0.00042909 deg
M 213.3051253920238 0.00042695 deg
tp 2457613.852115821365
(2016-Aug-13.35211582)
0.0023808 JED
period 1996.025849425082
5.46
0.00013085
3.582e-07
d
yr
n .1803583856910928 1.1823e-08 deg/d
Q 3.157931090011807 1.3801e-07 AU
  Orbit Determination Parameters
   # obs. used (total)      101  
   data-arc span      7156 days (19.59 yr)  
   first obs. used      1994-06-07  
   last obs. used      2014-01-09  
   planetary ephem.      DE431  
   SB-pert. ephem.      SB431-BIG16  
   condition code      0  
   fit RMS      .62452  
   data source      ORB  
   producer      Otto Matic  
   solution date      2014-Jan-22 14:59:10  

Additional Information
 Earth MOID = 2.03227 AU 
 T_jup = 3.188 
[ show covariance matrix ]

Ephemeris | Orbit Diagram | Orbital Elements | Physical Parameters | Discovery Circumstances | Close-Approach Data ]

Physical Parameter Table
Parameter Symbol Value Units Sigma Reference Notes
absolute magnitude H 15.5 mag n/a MPO241526  

241442 Shandongkexie           Discovered 2008 Dec. 25 at Shandong University Observatory, Weihai.
`Shandongkexie' is the Chinese phonetic alphabet representation of the Shandong Association for Science and Technology. It is an important non-governmental organization in China, devoted to developing exchanges between scientists and promoting public scientific education.
NOTE: some special characters may not display properly (any characters within {} are an attempt to place the proper accent above a character)
Reference: 20110615/MPCPages.arcLast Updated: 2013-03-28

[ show close-approach data ]
Alternate Designations
 2008 YN9 = 2005 MX13 
Ephemeris | Orbit Diagram | Orbital Elements | Physical Parameters | Discovery Circumstances | Close-Approach Data ]
ABOUT SSD CREDITS/AWARDS PRIVACY/COPYRIGHT GLOSSARY LINKS
FirstGov 2014-Apr-16 19:08 UT
(server date/time)  
NASA Home Page
Site Manager:   Donald K. Yeomans
Webmaster  Alan B. Chamberlin